When you browse on this site, cookies collect data to enhance your experience and personalize the content and advertising you see.
Visit our Privacy Policy to learn more. By continuing to use the site, you agree to this use of cookies and data.
  • In France
  • List of Countries
  • For 7 days
  • Water Temperature
  • Weather Map
  • Weather Widgets
  • user-avatar
    Login

    Hourly Weather Xiangcheng

    Today, 23 October, Wednesday

    Time Temperature Precipitation Wind Pressure Humidity
    00:00 +19°C° 0 mm 1 mps 756 mmHg 69%
    01:00 +18°C° 0 mm 1 mps 755 mmHg 71%
    02:00 +18°C° 0 mm 1 mps 755 mmHg 73%
    03:00 +18°C° 0 mm 1 mps 755 mmHg 75%
    04:00 +16°C° 0 mm 1 mps 755 mmHg 76%
    05:00 +16°C° 0 mm 1 mps 755 mmHg 77%
    06:00 +18°C° 0 mm 1 mps 755 mmHg 75%
    07:00 +18°C° 0 mm 1 mps 755 mmHg 73%
    08:00 +18°C° 0 mm 1 mps 756 mmHg 71%
    09:00 +20°C° 0 mm 1 mps 756 mmHg 64%
    10:00 +22°C° 0 mm 1 mps 756 mmHg 57%
    11:00 +23°C° 0 mm 1 mps 757 mmHg 50%
    12:00 +24°C° 0 mm 1 mps 756 mmHg 46%
    13:00 +25°C° 0 mm 1 mps 755 mmHg 43%
    14:00 +25°C° 0 mm 2 mps 755 mmHg 40%
    15:00 +25°C° 0 mm 2 mps 755 mmHg 41%
    16:00 +25°C° 0 mm 2 mps 755 mmHg 42%
    17:00 +25°C° 0 mm 2 mps 755 mmHg 42%
    18:00 +24°C° 0 mm 2 mps 755 mmHg 45%
    19:00 +23°C° 0 mm 2 mps 755 mmHg 49%
    20:00 +20°C° 0 mm 2 mps 755 mmHg 52%
    21:00 +21°C° 0 mm 1 mps 756 mmHg 53%
    22:00 +21°C° 0 mm 1 mps 756 mmHg 55%
    23:00 +20°C° 0 mm 1 mps 757 mmHg 57%

    Tomorrow, 24 October, Thursday

    Time Temperature Precipitation Wind Pressure Humidity
    00:00 +20°C° 0 mm 1 mps 757 mmHg 58%
    01:00 +19°C° 0 mm 1 mps 756 mmHg 59%
    02:00 +19°C° 0 mm 1 mps 756 mmHg 60%
    03:00 +18°C° 0 mm 1 mps 756 mmHg 61%
    04:00 +18°C° 0 mm 1 mps 757 mmHg 62%
    05:00 +18°C° 0 mm 1 mps 757 mmHg 64%
    06:00 +18°C° 0 mm 1 mps 757 mmHg 63%
    07:00 +19°C° 0 mm 1 mps 757 mmHg 61%
    08:00 +19°C° 0 mm 1 mps 757 mmHg 60%
    09:00 +21°C° 0 mm 1 mps 757 mmHg 56%
    10:00 +21°C° 0 mm 2 mps 758 mmHg 52%
    11:00 +24°C° 0 mm 2 mps 758 mmHg 48%
    12:00 +24°C° 0 mm 3 mps 757 mmHg 46%
    13:00 +25°C° 0 mm 3 mps 757 mmHg 45%
    14:00 +26°C° 0 mm 4 mps 757 mmHg 43%
    15:00 +23°C° 0 mm 5 mps 757 mmHg 41%
    16:00 +22°C° 0 mm 6 mps 757 mmHg 39%
    17:00 +20°C° 0 mm 7 mps 757 mmHg 37%
    18:00 +18°C° 0 mm 7 mps 757 mmHg 37%
    19:00 +17°C° 0 mm 6 mps 758 mmHg 37%
    20:00 +16°C° 0 mm 6 mps 758 mmHg 37%
    21:00 +16°C° 0 mm 6 mps 758 mmHg 38%
    22:00 +15°C° 0 mm 6 mps 759 mmHg 39%
    23:00 +15°C° 0 mm 5 mps 759 mmHg 40%

    Day after tomorrow, 25 October, Friday

    Time Temperature Precipitation Wind Pressure Humidity
    00:00 +15°C° 0 mm 5 mps 759 mmHg 41%
    01:00 +14°C° 0 mm 5 mps 759 mmHg 42%
    02:00 +14°C° 0 mm 5 mps 759 mmHg 43%
    03:00 +14°C° 0 mm 4 mps 760 mmHg 43%
    04:00 +14°C° 0 mm 4 mps 760 mmHg 43%
    05:00 +14°C° 0 mm 4 mps 760 mmHg 42%
    06:00 +14°C° 0 mm 4 mps 760 mmHg 42%
    07:00 +15°C° 0 mm 4 mps 761 mmHg 42%
    08:00 +15°C° 0 mm 4 mps 761 mmHg 42%
    09:00 +17°C° 0 mm 4 mps 761 mmHg 39%
    10:00 +17°C° 0 mm 5 mps 762 mmHg 36%
    11:00 +19°C° 0 mm 6 mps 762 mmHg 33%
    12:00 +19°C° 0 mm 6 mps 761 mmHg 32%
    13:00 +19°C° 0 mm 6 mps 761 mmHg 31%
    14:00 +20°C° 0 mm 6 mps 761 mmHg 31%
    15:00 +19°C° 0 mm 5 mps 761 mmHg 30%
    16:00 +19°C° 0 mm 4 mps 761 mmHg 30%
    17:00 +18°C° 0 mm 4 mps 761 mmHg 29%
    18:00 +17°C° 0 mm 3 mps 761 mmHg 30%
    19:00 +17°C° 0 mm 3 mps 762 mmHg 31%
    20:00 +16°C° 0 mm 3 mps 762 mmHg 32%
    21:00 +16°C° 0 mm 2 mps 762 mmHg 33%
    22:00 +15°C° 0 mm 2 mps 762 mmHg 34%
    23:00 +14°C° 0 mm 2 mps 762 mmHg 35%

    26 October, Saturday

    Time Temperature Precipitation Wind Pressure Humidity
    00:00 +14°C° 0 mm 2 mps 762 mmHg 35%
    01:00 +14°C° 0 mm 2 mps 762 mmHg 35%
    02:00 +13°C° 0 mm 2 mps 762 mmHg 35%
    03:00 +13°C° 0 mm 1 mps 762 mmHg 35%
    04:00 +13°C° 0 mm 1 mps 762 mmHg 34%
    05:00 +12°C° 0 mm 1 mps 762 mmHg 34%
    06:00 +12°C° 0 mm 0 mps 762 mmHg 33%
    07:00 +12°C° 0 mm 0 mps 762 mmHg 32%
    08:00 +12°C° 0 mm 0 mps 762 mmHg 31%
    09:00 +14°C° 0 mm 0 mps 762 mmHg 28%
    10:00 +15°C° 0 mm 0 mps 762 mmHg 25%
    11:00 +18°C° 0 mm 1 mps 761 mmHg 22%
    12:00 +19°C° 0 mm 1 mps 761 mmHg 22%
    13:00 +19°C° 0 mm 2 mps 760 mmHg 22%
    14:00 +20°C° 0 mm 2 mps 760 mmHg 22%
    15:00 +20°C° 0 mm 2 mps 759 mmHg 24%
    16:00 +19°C° 0 mm 2 mps 759 mmHg 26%
    17:00 +19°C° 0 mm 2 mps 758 mmHg 27%
    18:00 +18°C° 0 mm 2 mps 758 mmHg 31%
    19:00 +17°C° 0 mm 2 mps 759 mmHg 34%
    20:00 +16°C° 0 mm 3 mps 759 mmHg 38%
    21:00 +16°C° 0 mm 3 mps 759 mmHg 43%
    22:00 +15°C° 0 mm 2 mps 758 mmHg 48%
    23:00 +14°C° 0 mm 2 mps 758 mmHg 53%

    27 October, Sunday

    Time Temperature Precipitation Wind Pressure Humidity
    00:00 +14°C° 0 mm 2 mps 758 mmHg 55%
    01:00 +14°C° 0 mm 2 mps 758 mmHg 57%
    02:00 +13°C° 0 mm 2 mps 758 mmHg 60%
    03:00 +13°C° 0 mm 2 mps 757 mmHg 61%
    04:00 +13°C° 0 mm 2 mps 757 mmHg 62%
    05:00 +12°C° 0 mm 2 mps 757 mmHg 63%
    06:00 +13°C° 0 mm 2 mps 757 mmHg 62%
    07:00 +13°C° 0 mm 2 mps 757 mmHg 62%
    08:00 +14°C° 0 mm 2 mps 757 mmHg 61%
    09:00 +16°C° 0 mm 3 mps 757 mmHg 53%
    10:00 +18°C° 0 mm 3 mps 757 mmHg 45%
    11:00 +21°C° 0 mm 3 mps 757 mmHg 37%
    12:00 +22°C° 0 mm 3 mps 756 mmHg 32%
    13:00 +24°C° 0 mm 3 mps 756 mmHg 27%
    14:00 +25°C° 0 mm 3 mps 755 mmHg 22%
    15:00 +24°C° 0 mm 3 mps 755 mmHg 25%
    16:00 +24°C° 0 mm 3 mps 754 mmHg 27%
    17:00 +22°C° 0 mm 3 mps 754 mmHg 29%
    18:00 +21°C° 0 mm 3 mps 754 mmHg 35%
    19:00 +19°C° 0 mm 3 mps 755 mmHg 40%
    20:00 +18°C° 0 mm 4 mps 755 mmHg 45%
    21:00 +18°C° 0 mm 3 mps 755 mmHg 47%
    22:00 +17°C° 0 mm 3 mps 755 mmHg 49%
    23:00 +17°C° 0 mm 3 mps 755 mmHg 51%

    28 October, Monday

    Time Temperature Precipitation Wind Pressure Humidity
    00:00 +16°C° 0 mm 3 mps 755 mmHg 52%
    01:00 +16°C° 0 mm 3 mps 755 mmHg 53%
    02:00 +14°C° 0 mm 3 mps 754 mmHg 54%
    03:00 +15°C° 0 mm 2 mps 754 mmHg 53%
    04:00 +15°C° 0 mm 2 mps 754 mmHg 51%
    05:00 +15°C° 0 mm 2 mps 754 mmHg 50%
    06:00 +14°C° 0 mm 3 mps 755 mmHg 45%
    07:00 +16°C° 0 mm 3 mps 755 mmHg 41%
    08:00 +17°C° 0 mm 3 mps 756 mmHg 36%
    09:00 +19°C° 0 mm 4 mps 756 mmHg 30%
    10:00 +21°C° 0 mm 4 mps 756 mmHg 24%
    11:00 +25°C° 0 mm 5 mps 756 mmHg 17%
    12:00 +25°C° 0 mm 4 mps 755 mmHg 16%
    13:00 +26°C° 0 mm 4 mps 755 mmHg 15%
    14:00 +27°C° 0 mm 4 mps 754 mmHg 14%
    15:00 +26°C° 0 mm 3 mps 754 mmHg 16%
    16:00 +25°C° 0 mm 2 mps 754 mmHg 18%
    17:00 +24°C° 0 mm 2 mps 754 mmHg 19%
    18:00 +23°C° 0 mm 1 mps 754 mmHg 20%
    19:00 +22°C° 0 mm 1 mps 754 mmHg 21%
    20:00 +21°C° 0 mm 1 mps 754 mmHg 22%
    21:00 +20°C° 0 mm 1 mps 754 mmHg 23%
    22:00 +19°C° 0 mm 1 mps 754 mmHg 24%
    23:00 +18°C° 0 mm 2 mps 754 mmHg 25%

    29 October, Tuesday

    Time Temperature Precipitation Wind Pressure Humidity
    00:00 +17°C° 0 mm 2 mps 754 mmHg 27%
    01:00 +17°C° 0 mm 2 mps 754 mmHg 29%
    02:00 +17°C° 0 mm 2 mps 754 mmHg 30%
    03:00 +16°C° 0 mm 2 mps 754 mmHg 32%
    04:00 +16°C° 0 mm 2 mps 753 mmHg 34%
    05:00 +15°C° 0 mm 2 mps 753 mmHg 35%
    06:00 +16°C° 0 mm 2 mps 754 mmHg 36%
    07:00 +16°C° 0 mm 2 mps 754 mmHg 37%
    08:00 +16°C° 0 mm 3 mps 754 mmHg 38%
    09:00 +19°C° 0 mm 3 mps 754 mmHg 32%
    10:00 +21°C° 0 mm 4 mps 754 mmHg 27%
    11:00 +25°C° 0 mm 4 mps 754 mmHg 22%
    12:00 +26°C° 0 mm 4 mps 754 mmHg 19%
    13:00 +27°C° 0 mm 5 mps 753 mmHg 16%
    14:00 +29°C° 0 mm 5 mps 752 mmHg 13%
    15:00 +28°C° 0 mm 5 mps 752 mmHg 15%
    16:00 +27°C° 0 mm 4 mps 752 mmHg 17%
    17:00 +26°C° 0 mm 4 mps 752 mmHg 19%
    18:00 +23°C° 0 mm 4 mps 753 mmHg 20%
    19:00 +22°C° 0 mm 3 mps 753 mmHg 21%
    20:00 +20°C° 0 mm 3 mps 753 mmHg 22%
    21:00 +20°C° 0 mm 2 mps 754 mmHg 23%
    22:00 +19°C° 0 mm 2 mps 754 mmHg 23%
    23:00 +18°C° 0 mm 2 mps 754 mmHg 24%
    Show more